Regional Weather Roundup
Issued by NWS

Home | Current Version | Previous Version | Graphics & Text | Print | Product List | Glossary Off
Versions: 1 2 3 4 5 6 7 8 9 10 11 12 13 14 15 16 17 18 19 20 21 22 23 24 25 26 27 28 29 30 31 32 33 34 35 36 37 38 39 40 41 42 43 44 45 46 47 48 49 50

000
ASUS43 KLSX 290907
RWRMO

WEATHER SUMMARY FOR MISSOURI
NATIONAL WEATHER SERVICE SPRINGFIELD MO
400 AM CDT THU SEP 29 2016

NOTE: "FAIR" INDICATES FEW OR NO CLOUDS BELOW 12,000 FEET WITH NO
       SIGNIFICANT WEATHER AND/OR OBSTRUCTIONS TO VISIBILITY.
       CURRENT SKY AND/OR WEATHER CONDITIONS ARE NOT AVAILABLE FOR
       CHILLICOTHE AND FARMINGTON.

MOZ001>031-035>038-043-044-053-054-291000-
...NORTHERN AND WESTERN MISSOURI...

CITY           SKY/WX    TMP DP  RH WIND       PRES   REMARKS
KANSAS CTY INT PTCLDY    48  45  89 N6        30.29S
KANSAS C DTWN  CLEAR     53  47  79 NW3       30.29R
LEE`S SUMMIT   CLEAR     51  47  86 N8        30.28S
ST JOSEPH      CLEAR     48  46  93 N6        30.31R
CHILLICOTHE      N/A     52  49  89 N6        30.29S
KIRKSVILLE     CLEAR     50  48  93 N10       30.26R

$$
MOZ066>068-077>081-088>096-101>105-291000-
...SOUTHWEST MISSOURI...

CITY           SKY/WX    TMP DP  RH WIND       PRES   REMARKS
SPRINGFIELD    CLEAR     48  44  86 N5        30.22S
JOPLIN         CLEAR     48  47  96 N5        30.26R
BRANSON        CLEAR     50  46  87 N6        30.23R

$$
MOZ032>034-039>042-045>050-055>058-069>072-291000-
...CENTRAL MISSOURI...

CITY           SKY/WX    TMP DP  RH WIND       PRES   REMARKS
COLUMBIA       CLEAR     50  48  93 NW9       30.21S
JEFFERSON CITY CLEAR     52  49  89 NW6       30.21S
ROLLA          CLEAR     49  47  93 NW6       30.18S
SEDALIA        CLEAR     50  48  93 N7        30.26R
OSAGE BEACH    CLEAR     51  49  92 N6        30.23R

$$
MOZ051-052-059>065-291000-
...EAST CENTRAL MISSOURI...

CITY           SKY/WX    TMP DP  RH WIND       PRES   REMARKS
ST LOUIS INTL  CLEAR     55  49  80 NW8       30.12F
SPIRIT OF STL  CLEAR     53  50  89 W6        30.13F
ST CHARLES     CLEAR     55  50  83 NW13      30.12F

$$
MOZ072>076-082>087-097>100-106>115-291000-
...SOUTH CENTRAL AND SOUTHEAST MISSOURI...

CITY           SKY/WX    TMP DP  RH WIND       PRES   REMARKS
CAPE GIRARDEAU CLEAR     48  46  93 W3        30.09S
FARMINGTON     CLEAR     51  48  89 NW9       30.14S
POPLAR BLUFF   CLEAR     52  49  89 NW9       30.12S
WEST PLAINS    CLEAR     52  46  80 N9        30.19S

$$


USA.gov is the U.S. government's official web portal to all federal, state and local government web resources and services.